Location: Follega
(52.8850°N, 5.7362°E)
Time: 10:47:42
(UTC+00:00)

CARTOSAT-1 - Pass Details

Date: 08 October 2020
Orbit: 616 x 619 km, 97.8° (Epoch: 20 October)

Event Time Altitude Azimuth Distance (km) Brightness Sun altitude
Exits shadow 19:37:27 14° 25° (NNE) 1,767 5.9 -24.6°
Drops below altitude 10° 19:38:21 10° 15° (NNE) 1,993 6.2 -24.7°
Sets 19:41:06 0° 356° (N) 2,903 7.4 -25.1°
